This is the latest recevied weather packets stored in our database for station/object KB9PMA-1. If no packets are shown the sender has not sent any weather packets the latest 10 day(s).
| Time | Temp. | Humidity | Pressure | Rain* | Wind** | Luminosity | Snow |
|---|---|---|---|---|---|---|---|
| 1778177271 | 14.44° C | 43% | 1015.5 hPa | 0 mm | - | - | - |
| 1778176971 | 14.44° C | 42% | 1015.5 hPa | 0 mm | - | - | - |
| 1778176671 | 14.44° C | 49% | 1015.6 hPa | 0 mm | - | - | - |
| 1778176371 | 14.44° C | 43% | 1015.6 hPa | 0 mm | - | - | - |
| 1778176071 | 14.44° C | 42% | 1015.8 hPa | 0 mm | - | - | - |
| 1778175771 | 14.44° C | 47% | 1015.8 hPa | 0 mm | - | - | - |
| 1778175471 | 14.44° C | 43% | 1015.8 hPa | 0 mm | - | - | - |
| 1778175171 | 14.44° C | 49% | 1015.8 hPa | 0 mm | - | - | - |
| 1778174871 | 13.89° C | 45% | 1015.9 hPa | 0 mm | - | - | - |
| 1778174571 | 13.89° C | 43% | 1016.1 hPa | 0 mm | - | - | - |
| 1778174271 | 13.89° C | 47% | 1016.2 hPa | 0 mm | - | - | - |
| 1778173971 | 13.89° C | 44% | 1016.4 hPa | 0 mm | - | - | - |
| 1778173671 | 13.89° C | 45% | 1016.5 hPa | 0 mm | - | - | - |
| 1778173371 | 13.89° C | 50% | 1016.5 hPa | 0 mm | - | - | - |
| 1778173071 | 13.33° C | 44% | 1016.5 hPa | 0 mm | - | - | - |
| 1778172771 | 13.89° C | 45% | 1016.6 hPa | 0 mm | - | - | - |
| 1778172471 | 13.89° C | 47% | 1016.7 hPa | 0 mm | - | - | - |
| 1778172171 | 13.33° C | 50% | 1016.7 hPa | 0 mm | - | - | - |
| 1778171871 | 13.33° C | 46% | 1016.8 hPa | 0 mm | - | - | - |
| 1778171571 | 13.33° C | 49% | 1016.8 hPa | 0 mm | - | - | - |
| 1778171271 | 13.33° C | 53% | 1016.8 hPa | 0 mm | - | - | - |
| 1778170971 | 12.78° C | 49% | 1016.9 hPa | 0 mm | - | - | - |
| 1778170671 | 12.78° C | 50% | 1016.8 hPa | 0 mm | - | - | - |
| 1778170371 | 12.78° C | 48% | 1016.9 hPa | 0 mm | - | - | - |
| 1778170071 | 12.78° C | 49% | 1016.9 hPa | 0 mm | - | - | - |
* Rain latest hour (hover to see other rain measurements)
** Current wind speed in m/s (hover to see current wind gust speed)